Flag for China Weather past 2 weeks in Xiamen, China

Now
70 °F

Clear.


Feels Like: 70 °F
Forecast: 69 / 84 °F
Wind: 1 mph from Northeast

Location: Xiamen Airport


UV Index: 7 (High)

Visibility: 4 mi


Pressure: 29.86 "Hg

Humidity: 94%

Dew point: 68 °F

Location of XiamenLocation

Historic Weather in Xiamen

°F

Xiamen temperature yesterday

Maximum temperature yesterday: 86 °F (at 12:00 PM)
Minimum temperature yesterday: 68 °F (at 3:00 AM)
Average temperature yesterday: 77 °F

Past Weeks' High & Low Weather Summary

 TemperatureHumidityPressure
High88 °F (Apr 13, 1:00 PM)100% (Apr 7, 2:00 AM)30.15 "Hg (Apr 7, 2:00 AM)
Low57 °F (Apr 5, 1:00 AM)34% (Apr 15, 11:00 AM)29.77 "Hg (Apr 12, 5:00 PM)
Average70 °F74%29.99 "Hg
* Reported Apr 3 4:00 AM — Apr 18 4:00 AM, Xiamen, Weather by CustomWeather, © 2014

Note: Actual official high and low records may vary slightly from our data, if they occured in-between our weather recording intervals... More about our weather records

Advertising

Historic Weather Conditions — Data for Previous 24 hours

 ConditionsComfort  
Time TempWeatherWind HumidityBarometerVisibility
4:00 AM
Apr 18
72 °FClear.1 mph88%29.86 "Hg4 mi
3:00 AM72 °FClear.1 mph88%29.86 "Hg4 mi
2:00 AM70 °FClear.1 mph94%29.86 "Hg4 mi
1:00 AM72 °FClear.1 mph88%29.86 "Hg5 mi
12:00 AM72 °FClear.3 mph88%29.89 "Hg10 mi
11:00 PM
Apr 17
75 °FClear.1 mph78%29.89 "Hg10 mi
10:00 PM75 °FClear.6 mph74%29.89 "Hg10 mi
9:00 PM75 °FClear.6 mph74%29.89 "Hg10 mi
8:00 PM77 °FPassing clouds.3 mph65%29.86 "HgN/A
7:00 PM77 °FPassing clouds.8 mph65%29.83 "HgN/A
6:00 PM79 °FSunny.13 mph58%29.83 "Hg10 mi
5:00 PM81 °FSunny.8 mph51%29.80 "Hg10 mi
4:00 PM82 °FSunny.8 mph51%29.80 "Hg10 mi
3:00 PM82 °FSunny.13 mph51%29.80 "Hg10 mi
2:00 PM84 °FSunny.10 mph51%29.83 "Hg10 mi
1:00 PM86 °FSunny.15 mph55%29.83 "Hg10 mi
12:00 PM86 °FSunny.10 mph52%29.86 "Hg10 mi
11:00 AM84 °FPassing clouds.10 mph55%29.89 "HgN/A
10:00 AM82 °FPassing clouds.8 mph62%29.89 "HgN/A
9:00 AM81 °FPassing clouds.6 mph70%29.89 "HgN/A
8:00 AM77 °FFog.3 mph74%29.89 "Hg2 mi
7:00 AM72 °FFog.1 mph88%29.86 "Hg1 mi
6:00 AM68 °FFog.No wind94%29.86 "Hg1 mi
Weather by CustomWeather, © 2014

See weather overview